This demonstration page uses our WeatherBlox Daily Observations layout. Learn more.

Left ArrowRight Arrow

Hourly Observations for May 15, 2017

Temp ( °F °C ) Dew Point ( °F °C ) Humidity (%) Winds ( mph kmh ) Pressure ( in mb ) Visibility ( mi km ) Precip ( " mm )
12:15 am 00:15 Mostly Cloudy N/A N/A N/A N 12 19 N/A 10 16 N/A
12:35 am 00:35 Cloudy 59 15 32 undefined 36 36 NNW 10 17 29.85 1011 10 16 N/A
12:55 am 00:55 Cloudy 61 16 32 undefined 34 34 N 10 17 29.88 1012 10 16 N/A
1:15 am 01:15 Cloudy 59 15 32 undefined 36 36 N 15 24 29.88 1012 10 16 N/A
1:35 am 01:35 Cloudy 59 15 32 undefined 36 36 N 12 19 29.88 1012 10 16 N/A
1:55 am 01:55 Cloudy 59 15 32 undefined 36 36 N 8 13 29.88 1012 10 16 N/A
2:15 am 02:15 Cloudy 55 13 34 1 44 44 NNW 7 11 29.88 1012 10 16 N/A
2:35 am 02:35 Mostly Cloudy 55 13 34 1 44 44 NW 7 11 29.88 1012 10 16 N/A
2:55 am 02:55 Partly Cloudy 54 12 34 1 47 47 NW 7 11 29.88 1012 10 16 N/A
3:15 am 03:15 Clear 54 12 34 1 47 47 NNW 3 6 29.88 1012 10 16 N/A
3:35 am 03:35 Clear 54 12 34 1 47 47 NNW 6 9 29.88 1012 10 16 N/A
3:55 am 03:55 Clear 52 11 36 2 54 54 NW 12 19 29.88 1012 10 16 N/A
4:15 am 04:15 Clear 54 12 36 2 51 51 NW 15 24 29.88 1012 10 16 N/A
4:35 am 04:35 Clear 54 12 37 3 54 54 NW 10 17 29.91 1013 10 16 N/A
4:55 am 04:55 Clear 54 12 36 2 51 51 NNW 8 13 29.91 1013 10 16 N/A
5:15 am 05:15 Clear 52 11 37 3 58 58 WNW 5 7 29.91 1013 10 16 N/A
5:35 am 05:35 Clear 52 11 37 3 58 58 N N/A 29.91 1013 10 16 N/A
5:55 am 05:55 Clear 52 11 37 3 58 58 NW 9 15 29.94 1014 10 16 N/A
6:15 am 06:15 Sunny 50 10 39 4 67 67 W 6 9 29.94 1014 10 16 N/A
6:35 am 06:35 Sunny 50 10 39 4 67 67 WNW 6 9 29.94 1014 10 16 N/A
6:55 am 06:55 Sunny 52 11 39 4 62 62 WNW 7 11 29.94 1014 10 16 N/A
7:15 am 07:15 Sunny 54 12 41 5 63 63 WNW 6 9 29.94 1014 10 16 N/A
7:35 am 07:35 Sunny 54 12 41 5 63 63 NW 9 15 29.97 1015 10 16 N/A
7:55 am 07:55 Sunny 55 13 41 5 59 59 WNW 15 24 29.97 1015 10 16 N/A
8:15 am 08:15 Sunny 55 13 43 6 63 63 NW 14 22 29.97 1015 10 16 N/A
8:35 am 08:35 Sunny 55 13 43 6 63 63 NNW 16 26 29.97 1015 10 16 N/A
8:55 am 08:55 Sunny 57 14 43 6 59 59 WNW 10 17 29.97 1015 10 16 N/A
9:15 am 09:15 Sunny 59 15 43 6 55 55 WNW 12 19 29.97 1015 10 16 N/A
9:35 am 09:35 Sunny 59 15 43 6 55 55 NNW 9 15 29.97 1015 10 16 N/A
9:55 am 09:55 Sunny 61 16 43 6 52 52 NNW 14 22 29.97 1015 10 16 N/A
10:15 am 10:15 Sunny 61 16 43 6 52 52 N 15 24 29.97 1015 10 16 N/A
10:35 am 10:35 Sunny 63 17 45 7 52 52 NW 9 15 29.97 1015 10 16 N/A
10:55 am 10:55 Sunny 64 18 45 7 49 49 NW 16 26 29.97 1015 10 16 N/A
11:15 am 11:15 Sunny 64 18 45 7 49 49 WNW 21 33 29.97 1015 10 16 N/A
11:35 am 11:35 Sunny 64 18 45 7 49 49 NW 13 20 29.97 1015 10 16 N/A
11:55 am 11:55 Sunny 66 19 45 7 46 46 WNW 10 17 29.97 1015 10 16 N/A
12:15 pm 12:15 Sunny 68 20 45 7 43 43 NW 12 19 29.94 1014 10 16 N/A
12:35 pm 12:35 Sunny 70 21 45 7 40 40 NW 20 31 29.94 1014 10 16 N/A
12:55 pm 12:55 Sunny 70 21 46 8 43 43 NW 18 30 29.94 1014 10 16 N/A
1:15 pm 13:15 Sunny 70 21 45 7 40 40 NW 14 22 29.94 1014 10 16 N/A
1:35 pm 13:35 Sunny 70 21 45 7 40 40 WNW 14 22 29.94 1014 10 16 N/A
1:55 pm 13:55 Sunny 72 22 45 7 38 38 NW 15 24 29.94 1014 10 16 N/A
2:15 pm 14:15 Sunny 72 22 45 7 38 38 NW 18 30 29.94 1014 10 16 N/A
2:35 pm 14:35 Sunny 73 23 45 7 36 36 NNW 14 22 29.94 1014 10 16 N/A
2:55 pm 14:55 Sunny 73 23 45 7 36 36 NW 13 20 29.91 1013 10 16 N/A
3:15 pm 15:15 Sunny 73 23 45 7 36 36 NW 18 30 29.91 1013 10 16 N/A
3:35 pm 15:35 Sunny 73 23 45 7 36 36 NNW 17 28 29.91 1013 10 16 N/A
3:55 pm 15:55 Sunny N/A N/A N/A NNW 14 22 N/A 10 16 N/A
4:15 pm 16:15 Sunny 75 24 45 7 34 34 N 15 24 29.91 1013 10 16 N/A
4:35 pm 16:35 Sunny 75 24 45 7 34 34 NNW 22 35 29.91 1013 10 16 N/A
4:55 pm 16:55 Sunny 75 24 45 7 34 34 NW 22 35 29.91 1013 10 16 N/A
5:15 pm 17:15 Sunny 75 24 45 7 34 34 NW 20 31 29.91 1013 10 16 N/A
5:35 pm 17:35 Sunny 75 24 45 7 34 34 NNW 16 26 29.91 1013 10 16 N/A
5:55 pm 17:55 Sunny 75 24 45 7 34 34 NNW 15 24 29.91 1013 10 16 N/A
6:15 pm 18:15 Sunny 73 23 45 7 36 36 N 12 19 29.91 1013 10 16 N/A
6:35 pm 18:35 Sunny 73 23 45 7 36 36 NW 10 17 29.91 1013 10 16 N/A
6:55 pm 18:55 Sunny 73 23 43 6 33 33 NNW 10 17 29.94 1014 10 16 N/A
7:15 pm 19:15 Sunny 73 23 45 7 36 36 NW 10 17 29.94 1014 10 16 N/A
7:35 pm 19:35 Sunny 72 22 45 7 38 38 NNW 12 19 29.94 1014 10 16 N/A
7:55 pm 19:55 Sunny 70 21 45 7 40 40 NNW 8 13 29.94 1014 10 16 N/A
8:15 pm 20:15 Sunny 68 20 45 7 43 43 NW 5 7 29.94 1014 10 16 N/A
8:35 pm 20:35 Clear 64 18 45 7 49 49 NW 3 6 29.97 1015 10 16 N/A
8:55 pm 20:55 Clear 66 19 45 7 46 46 NW 3 6 29.97 1015 10 16 N/A
9:15 pm 21:15 Clear 64 18 45 7 49 49 NNW 5 7 29.97 1015 10 16 N/A
9:35 pm 21:35 Clear 57 14 50 10 77 77 NW 8 13 29.97 1015 10 16 N/A
9:55 pm 21:55 Clear 61 16 46 8 59 59 NW 9 15 29.97 1015 10 16 N/A
10:15 pm 22:15 Clear 61 16 46 8 59 59 W 5 7 30.00 1016 10 16 N/A
10:35 pm 22:35 Clear 59 15 46 8 63 63 WNW 6 9 30.00 1016 10 16 N/A
10:55 pm 22:55 Clear 55 13 48 9 77 77 WNW 5 7 30.00 1016 10 16 N/A
11:15 pm 23:15 Clear 61 16 45 7 55 55 N N/A 30.03 1017 10 16 N/A
11:35 pm 23:35 Clear 59 15 46 8 63 63 N N/A 30.03 1017 10 16 N/A
11:55 pm 23:55 Clear 59 15 46 8 63 63 N N/A 30.03 1017 10 16 N/A

Powered by AerisWeather